�N����,����,�g�[���i���ԁj���x,�g�[�����x,��g�[���i���ցj���x,����
 2004/05/01, 0:00,23.3,46,22.8,18.9
 2004/05/01, 0:15,23.3,47,22.8,19.2
 2004/05/01, 0:30,23.3,47,22.8,19.5
 2004/05/01, 0:45,23.2,47,22.7,19.7
 2004/05/01, 1:00,23.1,47,22.7,19.8
 2004/05/01, 1:15,23,47,22.6,19.9
 2004/05/01, 1:30,23,47,22.5,20.1
 2004/05/01, 1:45,22.9,48,22.5,20.2
 2004/05/01, 2:00,22.9,47,22.4,20.3
 2004/05/01, 2:15,22.8,47,22.4,20.4
 2004/05/01, 2:30,22.7,48,22.3,20.5
 2004/05/01, 2:45,22.7,48,22.2,20.5
 2004/05/01, 3:00,22.7,48,22.2,20.6
 2004/05/01, 3:15,22.6,48,22.1,20.7
 2004/05/01, 3:30,22.6,48,22.1,20.7
 2004/05/01, 3:45,22.5,49,22,20.8
 2004/05/01, 4:00,22.5,49,22,20.9
 2004/05/01, 4:15,22.4,49,21.9,20.9
 2004/05/01, 4:30,22.4,49,21.9,21
 2004/05/01, 4:45,22.3,49,21.8,21
 2004/05/01, 5:00,22.3,49,21.8,21.1
 2004/05/01, 5:15,22.2,49,21.8,20.6
 2004/05/01, 5:30,22.2,50,21.7,20.7
 2004/05/01, 5:45,22.1,50,21.7,20.8
 2004/05/01, 6:00,22.1,50,21.7,21
 2004/05/01, 6:15,22,50,21.6,21.2
 2004/05/01, 6:30,22,50,21.5,21.3
 2004/05/01, 6:45,22,50,21.5,21.4
 2004/05/01, 7:00,22,50,21.5,21.5
 2004/05/01, 7:15,22,50,21.5,21.6
 2004/05/01, 7:30,22,50,21.5,21.6
 2004/05/01, 7:45,22,50,21.5,21.7
 2004/05/01, 8:00,22,50,21.5,21.7
 2004/05/01, 8:15,22,50,21.5,21.4
 2004/05/01, 8:30,22,49,21.5,20.7
 2004/05/01, 8:45,22,49,21.5,20.8
 2004/05/01, 9:00,22,47,21.4,20.9
 2004/05/01, 9:15,22,45,21.4,19
 2004/05/01, 9:30,22,42,21.2,19.2
 2004/05/01, 9:45,22,42,21.1,19.4
 2004/05/01,10:00,22.1,42,21.4,19.6
 2004/05/01,10:15,22.1,44,21.6,19.8
 2004/05/01,10:30,22.2,43,21.6,20
 2004/05/01,10:45,22.3,44,21.7,20.1
 2004/05/01,11:00,22.3,44,21.9,20.3
 2004/05/01,11:15,22.4,44,22,20.4
 2004/05/01,11:30,22.4,45,22.2,19.2
 2004/05/01,11:45,22.5,46,22.3,19.4
 2004/05/01,12:00,22.6,46,22.5,19.7
 2004/05/01,12:15,22.6,43,22.5,19.9
 2004/05/01,12:30,22.7,42,22.5,20
 2004/05/01,12:45,22.7,40,22.5,20.2
 2004/05/01,13:00,22.7,41,22.8,20.4
 2004/05/01,13:15,22.8,40,22.8,20.6
 2004/05/01,13:30,22.9,39,22.9,20.7
 2004/05/01,13:45,23,40,23,20.8
 2004/05/01,14:00,23.1,39,23.1,19.9
 2004/05/01,14:15,23.3,38,23.5,20.2
 2004/05/01,14:30,23.4,40,23.7,19.8
 2004/05/01,14:45,23.5,41,23.7,19.8
 2004/05/01,15:00,23.6,41,23.7,20.2
 2004/05/01,15:15,23.7,40,23.8,20.5
 2004/05/01,15:30,23.8,40,23.9,20.7
 2004/05/01,15:45,24,40,23.9,20.9
 2004/05/01,16:00,24.1,40,23.9,20.4
 2004/05/01,16:15,24.2,40,24,20.8
 2004/05/01,16:30,24.3,39,24,21.1
 2004/05/01,16:45,24.5,37,24,21.4
 2004/05/01,17:00,24.6,36,23.9,21.6
 2004/05/01,17:15,24.6,34,23.8,21.8
 2004/05/01,17:30,24.6,32,23.6,21.9
 2004/05/01,17:45,24.6,32,23.5,21.4
 2004/05/01,18:00,24.8,34,23.6,21.5
 2004/05/01,18:15,24.9,36,23.7,21.7
 2004/05/01,18:30,25.1,36,23.7,21.9
 2004/05/01,18:45,25.1,35,23.7,22.1
 2004/05/01,19:00,25.1,34,23.9,22.2
 2004/05/01,19:15,25.2,35,23.9,22.4
 2004/05/01,19:30,25.2,36,23.9,22.5
 2004/05/01,19:45,25.3,37,24,21.2
 2004/05/01,20:00,25.3,38,24,20.6
 2004/05/01,20:15,25.4,38,24,21
 2004/05/01,20:30,25.4,38,24,21.3
 2004/05/01,20:45,25.4,38,24,21.6
 2004/05/01,21:00,25.4,38,24,21.8
 2004/05/01,21:15,25.4,38,24,20.4
 2004/05/01,21:30,25.4,38,24,20.6
 2004/05/01,21:45,25.4,38,24,21
 2004/05/01,22:00,25.4,38,24,21.4
 2004/05/01,22:15,25.4,39,24,21.6
 2004/05/01,22:30,25.3,40,24,19.9
 2004/05/01,22:45,25.3,41,24,19.7
 2004/05/01,23:00,25.3,42,24,20.1
 2004/05/01,23:15,25.3,43,24.1,20.5
 2004/05/01,23:30,25.3,44,24.1,20.8
 2004/05/01,23:45,25.3,44,24.1,21
 2004/05/02, 0:00,25.2,44,24.1,21.2
 2004/05/02, 0:15,25.1,45,24.1,21.4
 2004/05/02, 0:30,25.1,44,24.1,20.7
 2004/05/02, 0:45,24.9,43,24,20.4
 2004/05/02, 1:00,24.7,42,23.9,20.8
 2004/05/02, 1:15,24.6,42,23.9,20.3
 2004/05/02, 1:30,24.5,42,23.9,20.8
 2004/05/02, 1:45,24.4,42,23.8,21.1
 2004/05/02, 2:00,24.3,42,23.7,21.4
 2004/05/02, 2:15,24.2,42,23.6,21.6
 2004/05/02, 2:30,24.1,42,23.6,21.8
 2004/05/02, 2:45,24,42,23.5,21.9
 2004/05/02, 3:00,23.9,43,23.4,22
 2004/05/02, 3:15,23.8,43,23.3,22
 2004/05/02, 3:30,23.7,43,23.3,22.1
 2004/05/02, 3:45,23.6,43,23.2,22.1
 2004/05/02, 4:00,23.6,43,23.1,22.2
 2004/05/02, 4:15,23.5,43,23,22.2
 2004/05/02, 4:30,23.4,44,23,22.3
 2004/05/02, 4:45,23.3,44,22.9,22.3
 2004/05/02, 5:00,23.3,45,22.9,21.7
 2004/05/02, 5:15,23.2,45,22.8,21.7
 2004/05/02, 5:30,23.2,46,22.9,21.9
 2004/05/02, 5:45,23.1,46,22.7,21.3
 2004/05/02, 6:00,23,46,22.7,21.4
 2004/05/02, 6:15,23,47,22.6,21.6
 2004/05/02, 6:30,23,47,22.6,21.8
 2004/05/02, 6:45,22.9,48,22.5,22
 2004/05/02, 7:00,22.9,48,22.5,22.1
 2004/05/02, 7:15,22.9,48,22.4,22.2
 2004/05/02, 7:30,22.9,47,22.4,22.3
 2004/05/02, 7:45,22.9,48,22.4,21.6
 2004/05/02, 8:00,22.7,51,22.4,21.5
 2004/05/02, 8:15,22.7,53,22.4,21.7
 2004/05/02, 8:30,22.8,53,22.5,19.1
 2004/05/02, 8:45,22.8,53,22.5,18.9
 2004/05/02, 9:00,22.9,53,22.5,18.9
 2004/05/02, 9:15,22.9,53,22.5,19.3
 2004/05/02, 9:30,23.1,53,22.5,19.6
 2004/05/02, 9:45,23.1,53,22.5,19.8
 2004/05/02,10:00,23.2,52,22.6,20
 2004/05/02,10:15,23.3,52,22.7,20.2
 2004/05/02,10:30,23.3,52,22.8,20.4
 2004/05/02,10:45,23.4,52,22.8,20.5
 2004/05/02,11:00,23.4,52,22.9,20.7
 2004/05/02,11:15,23.4,52,22.9,20.8
 2004/05/02,11:30,23.5,51,23.2,20.1
 2004/05/02,11:45,23.5,51,23.4,20.4
 2004/05/02,12:00,23.6,51,23.5,20.6
 2004/05/02,12:15,23.6,50,23.6,18.4
 2004/05/02,12:30,23.6,51,23.8,18.8
 2004/05/02,12:45,23.7,50,23.8,19.3
 2004/05/02,13:00,23.8,50,23.7,19.6
 2004/05/02,13:15,23.9,49,23.6,19.9
 2004/05/02,13:30,23.8,49,23.5,20.1
 2004/05/02,13:45,23.8,48,23.4,19.7
 2004/05/02,14:00,23.9,48,23.5,20.1
 2004/05/02,14:15,23.9,48,23.5,20.4
 2004/05/02,14:30,24,47,23.5,20.7
 2004/05/02,14:45,24,47,23.5,20.9
 2004/05/02,15:00,23.8,47,23.5,20.5
 2004/05/02,15:15,23.8,47,23.4,20.9
 2004/05/02,15:30,23.7,47,23.4,21.2
 2004/05/02,15:45,23.7,47,23.4,21.4
 2004/05/02,16:00,23.7,47,23.3,21.6
 2004/05/02,16:15,23.6,47,23.2,21.8
 2004/05/02,16:30,23.6,47,23.2,21.9
 2004/05/02,16:45,23.6,47,23.2,22
 2004/05/02,17:00,23.8,48,23.4,21
 2004/05/02,17:15,24,47,23.5,21.3
 2004/05/02,17:30,24.1,47,23.6,20.6
 2004/05/02,17:45,24.2,47,23.6,20
 2004/05/02,18:00,24.2,47,23.6,20.4
 2004/05/02,18:15,24.3,47,23.6,20.8
 2004/05/02,18:30,24.3,47,23.6,21
 2004/05/02,18:45,24.3,48,23.6,20.2
 2004/05/02,19:00,24.3,48,23.7,19.6
 2004/05/02,19:15,24.4,49,23.7,20
 2004/05/02,19:30,24.5,49,23.7,20.4
 2004/05/02,19:45,24.5,50,23.7,20.8
 2004/05/02,20:00,24.6,50,23.8,21
 2004/05/02,20:15,24.6,50,23.8,19.8
 2004/05/02,20:30,24.6,50,23.7,20.3
 2004/05/02,20:45,24.6,50,23.7,18.7
 2004/05/02,21:00,24.7,51,23.7,19.4
 2004/05/02,21:15,24.7,51,23.7,19.8
 2004/05/02,21:30,24.7,51,23.7,19.1
 2004/05/02,21:45,24.7,51,23.7,19.6
 2004/05/02,22:00,24.7,51,23.7,20
 2004/05/02,22:15,24.7,52,23.9,20.4
 2004/05/02,22:30,24.7,52,23.9,20.6
 2004/05/02,22:45,24.7,53,23.9,20.8
 2004/05/02,23:00,24.7,53,23.9,21
 2004/05/02,23:15,24.7,53,23.9,21.2
 2004/05/02,23:30,24.7,53,23.8,21.3
 2004/05/02,23:45,24.7,53,23.8,20.7
 2004/05/03, 0:00,24.7,53,23.7,20.6
 2004/05/03, 0:15,24.6,54,23.6,21
 2004/05/03, 0:30,24.6,54,23.6,21.3
 2004/05/03, 0:45,24.5,54,23.6,21.5
 2004/05/03, 1:00,24.4,54,23.5,21.7
 2004/05/03, 1:15,24.3,54,23.5,21.8
 2004/05/03, 1:30,24.3,54,23.5,22
 2004/05/03, 1:45,24.3,53,23.4,21.2
 2004/05/03, 2:00,24.2,53,23.4,21.5
 2004/05/03, 2:15,24.1,53,23.4,21.7
 2004/05/03, 2:30,24.1,53,23.3,22
 2004/05/03, 2:45,23.9,53,23.3,22.1
 2004/05/03, 3:00,23.9,53,23.3,22.3
 2004/05/03, 3:15,23.8,53,23.2,22.4
 2004/05/03, 3:30,23.8,53,23.2,22.5
 2004/05/03, 3:45,23.7,53,23.2,22.5
 2004/05/03, 4:00,23.6,53,23.1,22.6
 2004/05/03, 4:15,23.6,53,23.1,22.7
 2004/05/03, 4:30,23.6,53,23,22.7
 2004/05/03, 4:45,23.5,53,23,22.8
 2004/05/03, 5:00,23.5,53,23,22.8
 2004/05/03, 5:15,23.4,54,22.9,22.9
 2004/05/03, 5:30,23.4,54,22.9,22.9
 2004/05/03, 5:45,23.3,54,22.8,23
 2004/05/03, 6:00,23.3,54,22.8,23
 2004/05/03, 6:15,23.3,54,22.8,23
 2004/05/03, 6:30,23.2,54,22.9,22.5
 2004/05/03, 6:45,22.5,54,23.1,22.2
 2004/05/03, 7:00,22.3,55,23.2,22.3
 2004/05/03, 7:15,22.7,55,23.2,22.4
 2004/05/03, 7:30,22.9,55,23.3,22.6
 2004/05/03, 7:45,23,55,23.2,21.4
 2004/05/03, 8:00,23,55,23.1,21.5
 2004/05/03, 8:15,23.1,54,23,21.7
 2004/05/03, 8:30,23.2,55,23,21.9
 2004/05/03, 8:45,23.3,55,23,19.2
 2004/05/03, 9:00,23.3,56,23.1,19.1
 2004/05/03, 9:15,23.4,56,23.2,19.1
 2004/05/03, 9:30,23.5,56,23.3,18.4
 2004/05/03, 9:45,23.6,56,23.6,18.9
 2004/05/03,10:00,23.6,56,23.8,19.4
 2004/05/03,10:15,23.8,55,24,19.7
 2004/05/03,10:30,23.8,55,24.1,20.1
 2004/05/03,10:45,23.9,55,24.3,20.3
 2004/05/03,11:00,24,55,24.4,20.5
 2004/05/03,11:15,24,55,24.5,20.7
 2004/05/03,11:30,24.2,54,24.7,20.9
 2004/05/03,11:45,24.2,54,24.8,21.1
 2004/05/03,12:00,24.3,54,24.9,21.2
 2004/05/03,12:15,24.3,54,25,21.4
 2004/05/03,12:30,24.4,54,25.1,21.6
 2004/05/03,12:45,24.4,54,25.2,21.7
 2004/05/03,13:00,24.5,53,25.3,21.8
 2004/05/03,13:15,24.6,53,25.4,21.9
 2004/05/03,13:30,24.6,52,25.5,22.1
 2004/05/03,13:45,24.7,52,25.5,22.2
 2004/05/03,14:00,24.8,51,25.4,22.3
 2004/05/03,14:15,25,50,25.3,22.4
 2004/05/03,14:30,25,49,25.3,22.5
 2004/05/03,14:45,25.1,47,25.3,22.6
 2004/05/03,15:00,25.1,46,25.2,22.8
 2004/05/03,15:15,25.2,45,25.2,22.4
 2004/05/03,15:30,25.2,45,25.1,21.9
 2004/05/03,15:45,25.2,45,25.1,22.2
 2004/05/03,16:00,25.3,44,25.1,22.5
 2004/05/03,16:15,25.3,44,25,22.7
 2004/05/03,16:30,25.4,44,25,21.9
 2004/05/03,16:45,25.5,46,24.9,22.2
 2004/05/03,17:00,25.4,40,25,21.2
 2004/05/03,17:15,25.4,41,25,21.6
 2004/05/03,17:30,25.4,46,25,21.9
 2004/05/03,17:45,25.3,49,25.1,22.2
 2004/05/03,18:00,25.3,50,25.1,22.4
 2004/05/03,18:15,25.3,50,25.1,21.4
 2004/05/03,18:30,25.3,50,25.1,21.8
 2004/05/03,18:45,25.4,50,25.1,22.2
 2004/05/03,19:00,25.5,51,25.2,22.4
 2004/05/03,19:15,25.4,52,25.3,22.6
 2004/05/03,19:30,25.4,53,25.3,21.7
 2004/05/03,19:45,25.4,53,25.3,21
 2004/05/03,20:00,25.5,53,25.3,21.5
 2004/05/03,20:15,25.6,53,25.4,19.9
 2004/05/03,20:30,25.5,53,25.4,20.6
 2004/05/03,20:45,25.5,53,25.4,21
 2004/05/03,21:00,25.5,52,25.3,21.4
 2004/05/03,21:15,25.5,53,25.3,21.7
 2004/05/03,21:30,25.4,53,25.2,21.9
 2004/05/03,21:45,25.3,53,25.2,22.1
 2004/05/03,22:00,25.2,53,25.1,22.2
 2004/05/03,22:15,25.2,53,25,22.3
 2004/05/03,22:30,25.3,54,25,22.5
 2004/05/03,22:45,25.4,54,25.1,21
 2004/05/03,23:00,25.4,54,25.1,21.2
 2004/05/03,23:15,25.5,55,25.2,21.6
 2004/05/03,23:30,25.6,55,25.2,21.9
 2004/05/03,23:45,25.5,55,25.1,20.7
 2004/05/04, 0:00,25.5,55,25.1,21.1
 2004/05/04, 0:15,25.4,56,25.1,21.5
 2004/05/04, 0:30,25.4,56,25.1,20.7
 2004/05/04, 0:45,25.3,56,25,21.1
 2004/05/04, 1:00,25.3,56,25,21.6
 2004/05/04, 1:15,25.2,56,24.9,21.9
 2004/05/04, 1:30,25.2,56,24.9,22.1
 2004/05/04, 1:45,25.1,56,24.8,22.3
 2004/05/04, 2:00,25.1,56,24.8,22.5
 2004/05/04, 2:15,25,57,24.8,22.6
 2004/05/04, 2:30,25,57,24.7,22.7
 2004/05/04, 2:45,24.9,57,24.7,22.8
 2004/05/04, 3:00,24.9,57,24.6,22.9
 2004/05/04, 3:15,24.8,57,24.6,23
 2004/05/04, 3:30,24.8,57,24.5,23
 2004/05/04, 3:45,24.7,57,24.5,23.1
 2004/05/04, 4:00,24.7,57,24.5,23.2
 2004/05/04, 4:15,24.6,58,24.4,23.2
 2004/05/04, 4:30,24.6,58,24.4,23.3
 2004/05/04, 4:45,24.5,58,24.3,23.3
 2004/05/04, 5:00,24.5,58,24.3,23.4
 2004/05/04, 5:15,24.4,58,24.3,23.4
 2004/05/04, 5:30,24.4,59,24.2,23.5
 2004/05/04, 5:45,24.3,59,24.2,23.5
 2004/05/04, 6:00,24.3,59,24.1,23.6
 2004/05/04, 6:15,24.3,59,24.1,23.6
 2004/05/04, 6:30,24.2,59,24.1,23.7
 2004/05/04, 6:45,24.2,60,24,23.7
 2004/05/04, 7:00,24.2,60,24,23.7
 2004/05/04, 7:15,24.2,61,24,23.8
 2004/05/04, 7:30,24.2,61,24,22.7
 2004/05/04, 7:45,24.2,65,24,22.9
 2004/05/04, 8:00,24.2,67,24,22.2
 2004/05/04, 8:15,24.3,67,24,22.1
 2004/05/04, 8:30,24.4,66,24.1,21.2
 2004/05/04, 8:45,24.4,66,24.1,20
 2004/05/04, 9:00,24.4,66,24.3,19.9
 2004/05/04, 9:15,24.4,65,24.3,20.5
 2004/05/04, 9:30,24.4,66,24.3,20.2
 2004/05/04, 9:45,24.4,66,24.3,20.7
 2004/05/04,10:00,24.4,66,24.3,20.5
 2004/05/04,10:15,24.4,67,24.4,21
 2004/05/04,10:30,24.4,66,24.3,21.4
 2004/05/04,10:45,24.3,67,24.3,21.7
 2004/05/04,11:00,24.4,67,24.3,21.9
 2004/05/04,11:15,24.4,67,24.3,22
 2004/05/04,11:30,24.5,66,24.3,22.2
 2004/05/04,11:45,24.5,65,24.4,22.3
 2004/05/04,12:00,24.6,66,24.4,22.4
 2004/05/04,12:15,24.5,66,24.4,22.5
 2004/05/04,12:30,24.6,66,24.4,22.6
 2004/05/04,12:45,24.6,66,24.4,22.7
 2004/05/04,13:00,24.6,66,24.4,22.8
 2004/05/04,13:15,24.6,67,24.4,22.9
 2004/05/04,13:30,24.6,68,24.4,22.9
 2004/05/04,13:45,24.6,67,24.4,23
 2004/05/04,14:00,24.5,68,24.4,23.1
 2004/05/04,14:15,24.6,68,24.4,23.1
 2004/05/04,14:30,24.5,67,24.3,23.2
 2004/05/04,14:45,24.4,67,24.3,23.3
 2004/05/04,15:00,24.4,66,24.3,23.3
 2004/05/04,15:15,24.4,65,24.3,23.4
 2004/05/04,15:30,24.4,65,24.2,23.4
 2004/05/04,15:45,24.3,65,24.2,23.5
 2004/05/04,16:00,24.3,64,24.2,23.6
 2004/05/04,16:15,24.3,64,24.2,23.6
 2004/05/04,16:30,24.2,63,24.1,23.7
 2004/05/04,16:45,24.1,63,24.1,23.7
 2004/05/04,17:00,24.1,63,24.1,23.8
 2004/05/04,17:15,24,63,24,23.8
 2004/05/04,17:30,24,62,23.9,23.9
 2004/05/04,17:45,24,62,23.9,23.9
 2004/05/04,18:00,23.9,62,23.9,23.9
 2004/05/04,18:15,23.8,62,23.8,24
 2004/05/04,18:30,23.8,62,23.7,24
 2004/05/04,18:45,23.7,62,23.8,21.9
 2004/05/04,19:00,23.8,63,23.7,20.1
 2004/05/04,19:15,23.7,64,23.7,20.6
 2004/05/04,19:30,23.8,63,23.6,20.9
 2004/05/04,19:45,23.6,64,23.6,20.5
 2004/05/04,20:00,23.6,63,23.5,20.9
 2004/05/04,20:15,23.6,62,23.4,20
 2004/05/04,20:30,23.6,63,23.4,20.3
 2004/05/04,20:45,23.5,64,23.4,19.8
 2004/05/04,21:00,23.5,63,23.3,19.5
 2004/05/04,21:15,23.5,63,23.3,19.2
 2004/05/04,21:30,23.5,63,23.3,19.7
 2004/05/04,21:45,23.4,63,23.3,20.1
 2004/05/04,22:00,23.4,63,23.2,20
 2004/05/04,22:15,23.3,63,23.2,20.5
 2004/05/04,22:30,23.3,64,23.2,20.8
 2004/05/04,22:45,23.3,65,23.2,21.1
 2004/05/04,23:00,23.3,65,23.2,21.2
 2004/05/04,23:15,23.2,64,23.2,20.4
 2004/05/04,23:30,23.1,64,23.2,20.4
 2004/05/04,23:45,23.1,64,23.2,20.7
 2004/05/05, 0:00,23.1,63,23.2,21
 2004/05/05, 0:15,23,63,23.1,21.2
 2004/05/05, 0:30,22.9,63,23.1,21.3
 2004/05/05, 0:45,22.9,62,23,21.5
 2004/05/05, 1:00,22.9,62,22.9,21.6
 2004/05/05, 1:15,22.7,62,22.9,21.7
 2004/05/05, 1:30,22.7,62,22.8,21.8
 2004/05/05, 1:45,22.7,62,22.8,21.8
 2004/05/05, 2:00,22.6,62,22.7,21.9
 2004/05/05, 2:15,22.5,62,22.7,21.9
 2004/05/05, 2:30,22.4,62,22.6,22
 2004/05/05, 2:45,22.4,62,22.5,22
 2004/05/05, 3:00,22.3,62,22.5,22.1
 2004/05/05, 3:15,22.2,61,22.4,22.2
 2004/05/05, 3:30,22.2,62,22.4,22.2
 2004/05/05, 3:45,22.1,62,22.3,22.2
 2004/05/05, 4:00,22,62,22.3,22.3
 2004/05/05, 4:15,22,62,22.2,22.3
 2004/05/05, 4:30,22,61,22.2,22.4
 2004/05/05, 4:45,21.9,61,22.1,22.4
 2004/05/05, 5:00,22,61,22.1,22.5
 2004/05/05, 5:15,22,61,22,22.5
 2004/05/05, 5:30,21.9,61,22,22.5
 2004/05/05, 5:45,21.8,61,21.9,22.6
 2004/05/05, 6:00,21.7,61,21.9,22.6
 2004/05/05, 6:15,21.7,61,21.8,22.6
 2004/05/05, 6:30,21.7,60,21.8,22.6
 2004/05/05, 6:45,21.6,60,21.8,22.7
 2004/05/05, 7:00,21.6,61,21.7,21.9
 2004/05/05, 7:15,21.6,60,21.7,21.9
 2004/05/05, 7:30,21.6,60,21.7,21.4
 2004/05/05, 7:45,21.6,61,21.6,21.4
 2004/05/05, 8:00,21.6,62,21.6,21.5
 2004/05/05, 8:15,21.5,64,21.6,21.6
 2004/05/05, 8:30,21.6,63,21.6,21.7
 2004/05/05, 8:45,21.5,63,21.6,21.9
 2004/05/05, 9:00,21.6,62,21.8,20.6
 2004/05/05, 9:15,21.9,61,22.1,20.7
 2004/05/05, 9:30,21.6,58,22.2,20.9
 2004/05/05, 9:45,21.4,58,22.1,19.7
 2004/05/05,10:00,21.3,57,21.6,19.9
 2004/05/05,10:15,21.3,55,21.2,20.2
 2004/05/05,10:30,21.4,56,21,20.4
 2004/05/05,10:45,21.3,58,21.1,20.6
 2004/05/05,11:00,21.4,56,21.3,20.8
 2004/05/05,11:15,21.5,58,21.4,20.9
 2004/05/05,11:30,21.6,57,21.5,21
 2004/05/05,11:45,21.5,57,21.5,21.1
 2004/05/05,12:00,21.6,57,21.6,21.2
 2004/05/05,12:15,21.7,55,21.7,20.8
 2004/05/05,12:30,21.8,56,21.8,20.8
 2004/05/05,12:45,21.8,55,21.8,21
 2004/05/05,13:00,21.9,54,21.9,20.4
 2004/05/05,13:15,22,56,22.1,20.6
 2004/05/05,13:30,21.9,53,22.1,20.9
 2004/05/05,13:45,21.9,54,22.2,21.1
 2004/05/05,14:00,22,53,22.2,21.3
 2004/05/05,14:15,22.1,53,22.1,20.2
 2004/05/05,14:30,22.1,53,22.2,19.6
 2004/05/05,14:45,22.1,52,22.2,19.9
 2004/05/05,15:00,22.1,50,22.3,20.2
 2004/05/05,15:15,22.2,51,22.3,20.1
 2004/05/05,15:30,22.1,52,22.3,20.4
 2004/05/05,15:45,22.2,53,22.3,20.3
 2004/05/05,16:00,22.2,53,22.3,20.6
 2004/05/05,16:15,22.3,52,22.4,20.8
 2004/05/05,16:30,22.3,51,22.1,21
 2004/05/05,16:45,22.3,50,21.8,21.1
 2004/05/05,17:00,22.3,49,21.7,21.2
 2004/05/05,17:15,22.3,49,21.5,21.4
 2004/05/05,17:30,22.4,50,21.5,21.4
 2004/05/05,17:45,22.3,50,21.5,21.3
 2004/05/05,18:00,22.4,51,21.5,20.4
 2004/05/05,18:15,22.5,52,21.7,20.3
 2004/05/05,18:30,22.6,53,21.8,20.5
 2004/05/05,18:45,22.5,54,21.9,20.7
 2004/05/05,19:00,22.5,55,22,20.9
 2004/05/05,19:15,22.7,55,22.3,19.6
 2004/05/05,19:30,22.7,55,22.5,19.9
 2004/05/05,19:45,22.8,54,22.4,20.2
 2004/05/05,20:00,22.8,55,22.4,19.3
 2004/05/05,20:15,22.8,55,22.4,19.6
 2004/05/05,20:30,22.9,56,22.4,19.9
 2004/05/05,20:45,22.8,56,22.4,19.2
 2004/05/05,21:00,22.9,57,22.4,19.4
 2004/05/05,21:15,22.8,57,22.4,19.3
 2004/05/05,21:30,22.8,57,22.4,19.1
 2004/05/05,21:45,22.8,57,22.5,19.3
 2004/05/05,22:00,22.8,57,22.5,19.6
 2004/05/05,22:15,22.7,59,22.5,19.4
 2004/05/05,22:30,22.8,59,22.5,19.2
 2004/05/05,22:45,22.8,58,22.5,19
 2004/05/05,23:00,22.8,59,22.5,19.4
 2004/05/05,23:15,22.7,59,22.5,19.1
 2004/05/05,23:30,22.7,58,22.5,19.2
 2004/05/05,23:45,22.6,58,22.5,19.5
 2004/05/06, 0:00,22.6,58,22.4,19.8
 2004/05/06, 0:15,22.5,58,22.4,20
 2004/05/06, 0:30,22.5,58,22.3,20.2
 2004/05/06, 0:45,22.4,58,22.2,20.3
 2004/05/06, 1:00,22.4,58,22.2,20.5
 2004/05/06, 1:15,22.3,58,22.1,20.6
 2004/05/06, 1:30,22.2,58,22,20.7
 2004/05/06, 1:45,22.1,57,22,20.8
 2004/05/06, 2:00,22,58,21.9,20.8
 2004/05/06, 2:15,22,57,21.9,20.9
 2004/05/06, 2:30,22,56,21.8,21
 2004/05/06, 2:45,21.8,56,21.7,21
 2004/05/06, 3:00,21.7,56,21.7,21.1
 2004/05/06, 3:15,21.7,56,21.6,21.2
 2004/05/06, 3:30,21.5,56,21.6,21.2
 2004/05/06, 3:45,21.5,56,21.5,21.3
 2004/05/06, 4:00,21.4,56,21.5,21.3
 2004/05/06, 4:15,21.3,56,21.4,21.4
 2004/05/06, 4:30,21.3,56,21.4,21.4
 2004/05/06, 4:45,21.3,56,21.3,21.5
 2004/05/06, 5:00,21.1,56,21.3,21.5
 2004/05/06, 5:15,21,56,21.2,21.6
 2004/05/06, 5:30,21.1,56,21.2,21.6
 2004/05/06, 5:45,21,56,21.1,21.6
 2004/05/06, 6:00,20.9,57,21.1,21.7
 2004/05/06, 6:15,20.8,57,21,21.7
 2004/05/06, 6:30,20.8,57,21,21.8
 2004/05/06, 6:45,20.8,57,20.9,21.8
 2004/05/06, 7:00,20.2,53,20.9,21
 2004/05/06, 7:15,20,54,21,19.6
 2004/05/06, 7:30,19.9,54,20.8,19.8
 2004/05/06, 7:45,20,55,20.8,18.6
 2004/05/06, 8:00,20.1,55,20.7,18.7
 2004/05/06, 8:15,20.2,58,20.8,18.3
 2004/05/06, 8:30,20.3,57,20.8,18.7
 2004/05/06, 8:45,20.3,57,20.8,19
 2004/05/06, 9:00,20.6,58,20.9,19.2
 2004/05/06, 9:15,20.7,58,20.9,19.4
 2004/05/06, 9:30,20.9,57,21,19.6
 2004/05/06, 9:45,21.1,57,21.2,19.7
 2004/05/06,10:00,21.2,57,21.3,19.8
 2004/05/06,10:15,21.3,56,21.5,19.9
 2004/05/06,10:30,21.4,53,21.6,20
 2004/05/06,10:45,21.4,51,21.7,20.1
 2004/05/06,11:00,21.4,52,21.6,20.2
 2004/05/06,11:15,21.5,51,21.7,20.3
 2004/05/06,11:30,21.5,53,21.9,20.4
 2004/05/06,11:45,21.8,52,22,20.5
 2004/05/06,12:00,21.9,51,22.2,20.6
 2004/05/06,12:15,21.8,53,22.3,20.7
 2004/05/06,12:30,21.9,50,22.4,20.6
 2004/05/06,12:45,22.1,51,22.5,20.7
 2004/05/06,13:00,22.1,50,22.7,21
 2004/05/06,13:15,22.2,48,22.8,21.2
 2004/05/06,13:30,22.2,49,22.8,21.4
 2004/05/06,13:45,22.3,49,22.9,21.5
 2004/05/06,14:00,22.4,47,23,21.7
 2004/05/06,14:15,22.5,48,23,21.8
 2004/05/06,14:30,22.6,48,23.1,21.9
 2004/05/06,14:45,22.7,46,23.2,22
 2004/05/06,15:00,22.8,43,23.3,21.6
 2004/05/06,15:15,22.8,44,23.4,21.7
 2004/05/06,15:30,23,36,23.4,22
 2004/05/06,15:45,23.1,39,23.5,22.2
 2004/05/06,16:00,23.2,40,23.6,22.1
 2004/05/06,16:15,23.3,32,23.7,22
 2004/05/06,16:30,23.3,34,23.7,22.2
 2004/05/06,16:45,23.4,35,23.8,22.4
 2004/05/06,17:00,23.5,33,23.9,22.6
 2004/05/06,17:15,23.6,28,23.9,22.5
 2004/05/06,17:30,23.6,25,24,22.2
 2004/05/06,17:45,23.6,25,24,22.1
 2004/05/06,18:00,23.6,25,24,21.5
 2004/05/06,18:15,23.6,24,24,21.1
 2004/05/06,18:30,23.5,25,24,20.6
 2004/05/06,18:45,23.6,29,23.9,21
 2004/05/06,19:00,23.7,31,23.9,21.3
 2004/05/06,19:15,24,34,23.9,21.6
 2004/05/06,19:30,24.1,35,23.9,21.8
 2004/05/06,19:45,24.1,35,23.9,22
 2004/05/06,20:00,24.2,36,23.9,22.1
 2004/05/06,20:15,24.2,38,23.9,22.2
 2004/05/06,20:30,24.3,39,23.9,22.3
 2004/05/06,20:45,24.3,40,23.8,22.4
 2004/05/06,21:00,24.4,41,23.8,21.5
 2004/05/06,21:15,24.4,42,23.8,20.3
 2004/05/06,21:30,24.4,43,23.8,20.7
 2004/05/06,21:45,24.4,43,23.8,19.8
 2004/05/06,22:00,24.4,43,23.8,20.3
 2004/05/06,22:15,24.4,45,23.7,20.4
 2004/05/06,22:30,24.4,45,23.7,20.6
 2004/05/06,22:45,24.4,45,23.7,20.8
 2004/05/06,23:00,24.3,46,23.7,21
 2004/05/06,23:15,24.4,46,23.6,19.3
 2004/05/06,23:30,24.3,45,23.6,19.6
 2004/05/06,23:45,24.2,46,23.6,20
 2004/05/07, 0:00,24.2,46,23.5,20.3
 2004/05/07, 0:15,24.2,47,23.5,19.3
 2004/05/07, 0:30,24.2,47,23.5,19.7
 2004/05/07, 0:45,24.1,47,23.4,20
 2004/05/07, 1:00,24.1,48,23.4,20.2
 2004/05/07, 1:15,24.1,47,23.4,20.4
 2004/05/07, 1:30,24,48,23.4,20.6
 2004/05/07, 1:45,24,48,23.4,20.7
 2004/05/07, 2:00,23.9,48,23.3,20.8
 2004/05/07, 2:15,23.8,48,23.3,21
 2004/05/07, 2:30,23.8,48,23.2,21
 2004/05/07, 2:45,23.7,48,23.2,21.1
 2004/05/07, 3:00,23.7,48,23.2,21.2
 2004/05/07, 3:15,23.6,48,23.1,21.3
 2004/05/07, 3:30,23.6,48,23.1,21.4
 2004/05/07, 3:45,23.5,49,23,21.5
 2004/05/07, 4:00,23.5,49,23,21.5
 2004/05/07, 4:15,23.4,49,22.9,21.6
 2004/05/07, 4:30,23.3,49,22.9,21.7
 2004/05/07, 4:45,23.2,49,22.8,21.7
 2004/05/07, 5:00,23.2,49,22.7,21.8
 2004/05/07, 5:15,23.1,49,22.7,21.8
 2004/05/07, 5:30,23.1,49,22.6,21.9
 2004/05/07, 5:45,23,49,22.6,21.9
 2004/05/07, 6:00,22.9,49,22.5,22
 2004/05/07, 6:15,22.9,49,22.5,22
 2004/05/07, 6:30,22.9,49,22.4,21.6
 2004/05/07, 6:45,22.9,51,22.5,21.6
 2004/05/07, 7:00,22.5,49,22.4,20.7
 2004/05/07, 7:15,22.8,51,22.4,18.3
 2004/05/07, 7:30,22.8,50,22.3,18.8
 2004/05/07, 7:45,22.8,50,22.3,18.8
 2004/05/07, 8:00,22.8,50,22.3,19.2
 2004/05/07, 8:15,22.9,50,22.4,19.5
 2004/05/07, 8:30,23,51,22.4,19.7
 2004/05/07, 8:45,23,51,22.4,19.9
 2004/05/07, 9:00,23,51,22.5,20
 2004/05/07, 9:15,23.1,50,22.6,20.1
 2004/05/07, 9:30,23.1,50,22.6,20.3
 2004/05/07, 9:45,23.2,50,22.7,20.5
 2004/05/07,10:00,23.2,49,22.7,20.7
 2004/05/07,10:15,23.3,49,22.8,20.8
 2004/05/07,10:30,23.3,48,22.9,20.9
 2004/05/07,10:45,23.3,48,22.9,21
 2004/05/07,11:00,23.4,47,23,21.1
 2004/05/07,11:15,23.4,47,23.1,21.2
 2004/05/07,11:30,23.5,47,23.2,21.2
 2004/05/07,11:45,23.5,47,23.3,21.3
 2004/05/07,12:00,23.6,47,23.4,21.4
 2004/05/07,12:15,23.6,46,23.4,21.3
 2004/05/07,12:30,23.6,46,23.5,21.4
 2004/05/07,12:45,23.8,45,23.6,21.6
 2004/05/07,13:00,23.8,45,23.6,21.8
 2004/05/07,13:15,23.8,45,23.7,22
 2004/05/07,13:30,23.9,45,23.8,22.1
 2004/05/07,13:45,24,45,23.9,22.2
 2004/05/07,14:00,24.1,45,23.9,22.3
 2004/05/07,14:15,24.2,45,24.1,22.4
 2004/05/07,14:30,24.3,46,24.2,22.5
 2004/05/07,14:45,24.4,46,24.4,22.6
 2004/05/07,15:00,24.5,46,24.5,22.7
 2004/05/07,15:15,24.6,45,24.6,22.8
 2004/05/07,15:30,24.8,45,24.7,22.9
 2004/05/07,15:45,24.9,45,24.8,23
 2004/05/07,16:00,25.1,41,24.8,23.1
 2004/05/07,16:15,25.2,40,24.8,23.2
 2004/05/07,16:30,25.2,38,24.8,23.3
 2004/05/07,16:45,25.3,37,24.8,23.4
 2004/05/07,17:00,25.3,37,24.8,23.4
 2004/05/07,17:15,25.3,39,24.8,23.5
 2004/05/07,17:30,25.4,39,24.6,23.1
 2004/05/07,17:45,25.3,37,24.4,20.4
 2004/05/07,18:00,25.3,36,24,20.8
 2004/05/07,18:15,25.2,35,23.8,21.2
 2004/05/07,18:30,25.2,35,23.5,21.4
 2004/05/07,18:45,25,36,23.2,21.6
 2004/05/07,19:00,24.8,35,22.7,21.8
 2004/05/07,19:15,24.5,34,22.5,21.9
 2004/05/07,19:30,24.5,34,22.9,22
 2004/05/07,19:45,24.4,34,23.2,22
 2004/05/07,20:00,24.3,34,23.3,22.1
 2004/05/07,20:15,24.3,32,23.4,22.2